Weather History for Ankeny, IA

Change the Weather History Date:

Monday, August 26, 2013

  Actual Average (KDSM) Record (KDSM)
Temperature  
Mean Temperature 86 °F 73 °F  
Max Temperature 96 °F 83 °F 104 °F (1983)
Min Temperature 75 °F 63 °F 45 °F (1910)
Degree Days  
Heating Degree Days 0 0  
Month to date heating degree days 0  
Since 1 June heating degree days 18  
Since 1 July heating degree days 1  
Cooling Degree Days 20 8  
Month to date cooling degree days 256  
Year to date cooling degree days 902  
Since 1 June cooling degree days 826  
Growing Degree Days 36 (Base 50)    
Moisture  
Dew Point 69 °F    
Average Humidity 59    
Maximum Humidity 83    
Minimum Humidity 37    
Precipitation  
Precipitation 0.00 in 0.13 in 4.18 in (1977)
Month to date precipitation 3.52  
Year to date precipitation 26.11  
Snow  
Snow 0.00 in 0.00 in - ()
Month to date snowfall 0.0  
Since 1 June snowfall 0.0  
Since 1 July snowfall 0.0  
Snow Depth -    
Sea Level Pressure  
Sea Level Pressure 30.05 in    
Wind  
Wind Speed 10 mph (SSW)    
Max Wind Speed 16 mph    
Max Gust Speed 22 mph    
Visibility 10 miles    
Events      
T = Trace of Precipitation, MM = Missing Value Source: NWS Daily Summary

Daily Weather History Graph

Daily Weather History Graph

Search for Another Location

Airport:

Trip Planner

Search our weather history database for the weather conditions in past years. The results will help you decide how hot, cold, wet, or windy it might be!

Date:

Astronomy

Aug. 26, 2013 Rise Set
Actual Time 6:34 AM CDT 7:56 PM CDT
Civil Twilight 6:05 AM CDT 8:25 PM CDT
Nautical Twilight 5:30 AM CDT 9:00 PM CDT
Astronomical Twilight 4:53 AM CDT 9:37 PM CDT
Moon 11:02 PM CDT (8/26) 12:42 PM CDT (8/26)
Length of Visible Light 14h 20m
Length of Day
13h 22m
Waning Gibbous, 66% of the Moon is Illuminated
Aug 26
Waning Gibbous
Aug 28
Last Quarter
Sep 5
New
Sep 12
First Quarter
Sep 19
Full

Hourly Weather History & Observations

Time (CDT) Temp. Heat Index Dew Point Humidity Pressure Visibility Wind Dir Wind Speed Gust Speed Precip Events Conditions
12:15 AM 80.6 °F 83.9 °F 69.8 °F 70% 30.11 in 10.0 mi South 11.5 mph 17.3 mph N/A   Clear
12:35 AM 80.6 °F 83.9 °F 69.8 °F 70% 30.11 in 10.0 mi South 10.4 mph 17.3 mph N/A   Clear
12:55 AM 80.6 °F 83.9 °F 69.8 °F 70% 30.11 in 10.0 mi South 11.5 mph - N/A   Clear
1:15 AM 80.6 °F 83.9 °F 69.8 °F 70% 30.11 in 10.0 mi South 10.4 mph - N/A   Clear
1:35 AM 78.8 °F - 69.8 °F 74% 30.11 in 10.0 mi South 10.4 mph - N/A   Clear
1:55 AM 78.8 °F - 69.8 °F 74% 30.10 in 10.0 mi SSW 9.2 mph - N/A   Clear
2:15 AM 78.8 °F - 69.8 °F 74% 30.10 in 10.0 mi South 8.1 mph - N/A   Clear
2:35 AM 78.8 °F - 69.8 °F 74% 30.10 in 10.0 mi SSW 9.2 mph 15.0 mph N/A   Clear
2:55 AM 78.8 °F - 69.8 °F 74% 30.10 in 10.0 mi SSW 9.2 mph - N/A   Clear
3:15 AM 78.8 °F - 69.8 °F 74% 30.10 in 10.0 mi SSW 10.4 mph - N/A   Clear
3:35 AM 77.0 °F - 69.8 °F 78% 30.10 in 10.0 mi SSW 9.2 mph - N/A   Clear
3:55 AM 77.0 °F - 69.8 °F 78% 30.10 in 10.0 mi SSW 9.2 mph - N/A   Clear
4:15 AM 77.0 °F - 69.8 °F 78% 30.09 in 10.0 mi SSW 8.1 mph - N/A   Clear
4:35 AM 77.0 °F - 69.8 °F 78% 30.09 in 10.0 mi SSW 6.9 mph 12.7 mph N/A   Clear
4:55 AM 77.0 °F - 69.8 °F 78% 30.09 in 10.0 mi SSW 8.1 mph - N/A   Clear
5:15 AM 77.0 °F - 69.8 °F 78% 30.09 in 10.0 mi SSW 9.2 mph - N/A   Clear
5:35 AM 75.2 °F - 69.8 °F 83% 30.10 in 10.0 mi SSW 6.9 mph - N/A   Clear
5:55 AM 75.2 °F - 69.8 °F 83% 30.10 in 10.0 mi SSW 6.9 mph - N/A   Clear
6:15 AM 75.2 °F - 69.8 °F 83% 30.10 in 10.0 mi SSW 9.2 mph - N/A   Clear
6:35 AM 75.2 °F - 69.8 °F 83% 30.10 in 10.0 mi SSW 9.2 mph - N/A   Clear
6:55 AM 75.2 °F - 69.8 °F 83% 30.11 in 10.0 mi South 3.5 mph - N/A   Clear
7:15 AM 75.2 °F - 69.8 °F 83% 30.11 in 10.0 mi SSW 8.1 mph - N/A   Clear
7:35 AM 77.0 °F - 69.8 °F 78% 30.12 in 10.0 mi Variable 4.6 mph 11.5 mph N/A   Clear
7:55 AM 77.0 °F - 69.8 °F 78% 30.12 in 10.0 mi South 8.1 mph - N/A   Clear
8:15 AM 78.8 °F - 69.8 °F 74% 30.11 in 10.0 mi SSW 11.5 mph - N/A   Clear
8:35 AM 78.8 °F - 69.8 °F 74% 30.11 in 10.0 mi SSW 9.2 mph 17.3 mph N/A   Clear
8:55 AM 80.6 °F 84.6 °F 71.6 °F 74% 30.10 in 10.0 mi SW 6.9 mph 15.0 mph N/A   Clear
9:15 AM 82.4 °F 87.2 °F 71.6 °F 70% 30.10 in 10.0 mi SSW 12.7 mph - N/A   Clear
9:35 AM 84.2 °F 89.6 °F 71.6 °F 66% 30.10 in 10.0 mi SW 8.1 mph - N/A   Clear
9:55 AM 84.2 °F 89.6 °F 71.6 °F 66% 30.10 in 10.0 mi SW 10.4 mph - N/A   Clear
10:15 AM 86.0 °F 91.8 °F 71.6 °F 62% 30.10 in 10.0 mi SSW 10.4 mph 16.1 mph N/A   Clear
10:35 AM 87.8 °F 93.8 °F 71.6 °F 58% 30.09 in 10.0 mi SW 9.2 mph 16.1 mph N/A   Clear
10:55 AM 87.8 °F 93.8 °F 71.6 °F 58% 30.09 in 10.0 mi SSW 11.5 mph - N/A   Clear
11:15 AM 89.6 °F 96.2 °F 71.6 °F 55% 30.09 in 10.0 mi SW 10.4 mph 16.1 mph N/A   Clear
11:35 AM 91.4 °F 98.4 °F 71.6 °F 52% 30.09 in 10.0 mi SSW 11.5 mph 17.3 mph N/A   Clear
11:55 AM 91.4 °F 98.4 °F 71.6 °F 52% 30.08 in 10.0 mi SSW 9.2 mph 16.1 mph N/A   Clear
12:15 PM 91.4 °F 96.8 °F 69.8 °F 49% 30.08 in 10.0 mi SW 12.7 mph 19.6 mph N/A   Clear
12:35 PM 93.2 °F 98.8 °F 69.8 °F 46% 30.07 in 10.0 mi SW 8.1 mph 16.1 mph N/A   Clear
12:55 PM 93.2 °F 100.5 °F 71.6 °F 49% 30.07 in 10.0 mi SSW 9.2 mph - N/A   Clear
1:15 PM 95.0 °F 101.3 °F 69.8 °F 44% 30.06 in 10.0 mi SW 11.5 mph - N/A   Light Drizzle
1:35 PM 95.0 °F 101.3 °F 69.8 °F 44% 30.05 in 9.0 mi SSW 13.8 mph - N/A   Clear
1:55 PM 95.0 °F 101.3 °F 69.8 °F 44% 30.04 in 10.0 mi SW 11.5 mph - N/A   Clear
2:15 PM 95.0 °F 101.3 °F 69.8 °F 44% 30.04 in 10.0 mi SSW 8.1 mph - N/A   Clear
2:35 PM 95.0 °F 101.3 °F 69.8 °F 44% 30.03 in 10.0 mi South 12.7 mph 20.7 mph N/A   Clear
2:55 PM 95.0 °F 101.3 °F 69.8 °F 44% 30.02 in 10.0 mi South 12.7 mph - N/A   Clear
3:15 PM 96.8 °F 103.1 °F 69.8 °F 41% 30.02 in 10.0 mi South 13.8 mph 21.9 mph N/A   Partly Cloudy
3:35 PM 96.8 °F 101.8 °F 68.0 °F 39% 30.01 in 10.0 mi South 13.8 mph 21.9 mph N/A   Clear
3:55 PM 96.8 °F 101.8 °F 68.0 °F 39% 30.02 in 10.0 mi SSW 12.7 mph - N/A   Partly Cloudy
4:15 PM 95.0 °F 98.5 °F 66.2 °F 39% 30.01 in 10.0 mi SSW 13.8 mph 21.9 mph N/A   Partly Cloudy
4:35 PM 96.8 °F 100.7 °F 66.2 °F 37% 30.01 in 10.0 mi SSW 13.8 mph - N/A   Clear
4:55 PM 96.8 °F 100.7 °F 66.2 °F 37% 30.00 in 10.0 mi SSW 12.7 mph 19.6 mph N/A   Clear
5:15 PM 96.8 °F 100.7 °F 66.2 °F 37% 30.00 in 10.0 mi SSW 12.7 mph 20.7 mph N/A   Clear
5:35 PM 96.8 °F 100.7 °F 66.2 °F 37% 29.99 in 10.0 mi SSW 13.8 mph 20.7 mph N/A   Clear
5:55 PM 95.0 °F 98.5 °F 66.2 °F 39% 29.99 in 10.0 mi SW 16.1 mph 21.9 mph N/A   Clear
6:15 PM 95.0 °F 98.5 °F 66.2 °F 39% 29.99 in 10.0 mi SSW 13.8 mph 21.9 mph N/A   Clear
6:35 PM 95.0 °F 98.5 °F 66.2 °F 39% 29.98 in 10.0 mi SW 10.4 mph 19.6 mph N/A   Clear
6:55 PM 93.2 °F 96.2 °F 66.2 °F 41% 29.98 in 10.0 mi SW 10.4 mph - N/A   Clear
7:15 PM 93.2 °F 96.2 °F 66.2 °F 41% 29.98 in 10.0 mi SSW 9.2 mph 16.1 mph N/A   Clear
7:35 PM 91.4 °F 94.0 °F 66.2 °F 43% 29.97 in 10.0 mi SSW 10.4 mph - N/A   Clear
7:55 PM 91.4 °F 94.0 °F 66.2 °F 43% 29.97 in 10.0 mi SSW 10.4 mph - N/A   Clear
8:15 PM 89.6 °F 92.2 °F 66.2 °F 46% 29.97 in 10.0 mi SSW 8.1 mph 16.1 mph N/A   Clear
8:35 PM 87.8 °F 90.4 °F 66.2 °F 49% 29.97 in 10.0 mi SSW 9.2 mph 15.0 mph N/A   Clear
8:55 PM 87.8 °F 90.4 °F 66.2 °F 49% 29.97 in 10.0 mi SSW 9.2 mph - N/A   Clear
9:15 PM 87.8 °F 91.4 °F 68.0 °F 52% 29.97 in 10.0 mi SSW 11.5 mph - N/A   Clear
9:35 PM 86.0 °F 89.4 °F 68.0 °F 55% 29.97 in 10.0 mi SSW 10.4 mph - N/A   Clear
9:55 PM 86.0 °F 89.4 °F 68.0 °F 55% 29.97 in 10.0 mi SSW 13.8 mph - N/A   Clear
10:15 PM 86.0 °F 89.4 °F 68.0 °F 55% 29.97 in 10.0 mi SSW 12.7 mph - N/A   Clear
10:35 PM 84.2 °F 87.3 °F 68.0 °F 58% 29.97 in 10.0 mi SSW 11.5 mph - N/A   Clear
10:55 PM 84.2 °F 88.4 °F 69.8 °F 62% 29.98 in 10.0 mi SSW 9.2 mph - N/A   Clear
11:15 PM 82.4 °F 86.3 °F 69.8 °F 66% 29.98 in 10.0 mi SSW 9.2 mph - N/A   Clear
11:35 PM 84.2 °F 88.4 °F 69.8 °F 62% 29.98 in 10.0 mi SSW 10.4 mph - N/A   Clear
11:55 PM 82.4 °F 86.3 °F 69.8 °F 66% 29.98 in 10.0 mi SSW 10.4 mph - N/A   Clear